Regional Weather Roundup
Issued by NWS

Home | Current Version | Previous Version | Graphics & Text | Print | Product List | Glossary On
Versions: 1 2 3 4 5 6 7 8 9 10 11 12 13 14 15 16 17 18 19 20 21 22 23 24 25 26 27 28 29 30 31 32 33 34 35 36 37 38 39 40 41 42 43 44 45 46 47 48 49 50
000
ASUS45 KSLC 261710
RWRUT

UTAH REGIONAL WEATHER ROUNDUP
NATIONAL WEATHER SERVICE SALT LAKE CITY UT
1000 AM MST MON JAN 26 2015

UTZ001>011-023>025-261800-

NORTHERN UTAH

CITY           SKY/WX    TMP DP  RH WIND       PRES   REMARKS
BRIGHAM CITY   SUNNY     33  30  90 CALM      30.42S
DUGWAY         SUNNY     37  34  87 CALM      30.39F
HILL AFB       SUNNY     39  27  62 SE10      30.38F WCI  33
LOGAN          FOG       28  27  96 SW6       30.41F VSB 1/4 WCI  22
OGDEN          SUNNY     39  32  76 N6        30.38F WCI  35
PROVO AIRPORT  NOT AVBL
SALT LAKE CITY SUNNY     41  32  70 E5        30.38F
VERNAL         MOSUNNY   34  24  67 CALM      30.49R
WENDOVER       SUNNY     32  27  80 SW3       30.39S
HEBER CITY     SUNNY     28  25  86 CALM      30.43F
WEST JORDAN    SUNNY     43  36  75 S7        30.38F

$$

UTZ012>022-026-027-261800-

SOUTHERN/CENTRAL UTAH

CITY           SKY/WX    TMP DP  RH WIND       PRES   REMARKS
BLANDING       SUNNY     44  26  48 CALM      30.46S
BRYCE CANYON   SUNNY     38  26  62 VRB3      30.39S
CEDAR CITY     SUNNY     40  31  70 CALM      30.31F
DELTA          SUNNY     36  33  87 NW5       30.36F WCI  32
MILFORD        SUNNY     36  30  79 NE5       30.34F WCI  32
MOAB/CYNLANDS  SUNNY     40  26  57 SE10      30.40S WCI  33
PRICE          SUNNY     41  25  53 S3        30.39S
ST GEORGE      SUNNY     45  28  53 N7        30.29S
KANAB          SUNNY     52  27  37 NE12      30.36R

$$

REGIONAL REPORTS     COLORADO/ARIZONA

CITY           SKY/WX    TMP DP  RH WIND       PRES   REMARKS
CRAIG, CO      SUNNY     21  19  92 SW3       30.49S
GRAND JUNCTION SUNNY     40  26  57 SE12      30.44R WCI  33
RIFLE          SUNNY     36  25  64 SE3       30.47F
MONTROSE       SUNNY     39  24  55 CALM      30.48S
CORTEZ         SUNNY     42  24  49 E3        30.39S
PAGE, AZ       SUNNY     44  27  51 CALM      30.37R
GRAND CANYON   MOSUNNY   45  23  42 E16G25    30.33R
KINGMAN        CLOUDY    54  26  34 N5        30.20R
FLAGSTAFF      PTSUNNY   42  22  44 E7        30.35S

$$

REGIONAL REPORTS    NEVADA/IDAHO/WYOMING

CITY           SKY/WX    TMP DP  RH WIND       PRES   REMARKS
LAS VEGAS, NV  PTSUNNY   60  31  33 S7        30.15S
ELY            MOSUNNY   34  26  72 CALM      30.36S
ELKO           SUNNY     34  28  79 VRB3      30.30F
POCATELLO, ID  FOG       29  29 100 NE6       30.39F VSB 1/4 WCI  23
BURLEY         CLOUDY    30  28  92 E10       30.34F FOG     WCI  21
EVANSTON, WY   MOSUNNY   36  30  79 N3        30.42S
ROCK SPRINGS   SUNNY     39  27  62 CALM      30.42S
KEMMERER       MOSUNNY   32  27  80 NW9       30.43R WCI  24

$$



USA.gov is the U.S. government's official web portal to all federal, state and local government web resources and services.